Hourly Data Report for May 17, 2021

OTTAWA INTL A
ONTARIO
Current Station Operator: NAVCAN

45°19'00.000" N
75°40'00.000" W
114.90 m
6106001
71628
YOW

Download Data

Hourly Data (May 2021)
Hourly Data Report for May 17, 2021
TIME
LST
Temp Definition
°C
Dew Point Definition
°C
Rel Hum Definition
%
Precip. Amount Definition
mm

Wind Dir Definition
10's deg

Wind Spd Definition
km/h
Visibility Definition
km
Stn Press Definition
kPa
Hmdx Definition


Wind Chill Definition


Weather Definition


00:00 12.6 4.2 56   18 10 24.1 100.92     LegendNANA
01:00 10.6 3.7 63   18 7 24.1 100.92     Clear
02:00 9.7 3.9 67   21 6 24.1 100.93     LegendNANA
03:00 8.6 3.4 69   19 7 24.1 100.94     LegendNANA
04:00 7.9 4.3 78   21 7 24.1 100.98     Clear
05:00 6.9 4.2 83   19 5 24.1 101.01     LegendNANA
06:00 10.2 6.4 77   25 4 24.1 101.07     LegendNANA
07:00 13.4 7.1 65   20 5 24.1 101.10     Clear
08:00 16.6 6.2 50   27 4 24.1 101.11     LegendNANA
09:00 19.8 5.8 40   36 3 24.1 101.10     LegendNANA
10:00 22.1 3.4 29   25 10 24.1 101.06     Clear
11:00 23.2 3.7 28   18 14 24.1 101.01     LegendNANA
12:00 23.2 3.5 27   17 11 24.1 100.96     LegendNANA
13:00 24.8 1.0 21   22 19 24.1 100.90     Mainly Clear
14:00 24.9 2.2 22   21 20 24.1 100.85     LegendNANA
15:00 23.5 3.5 27   20 15 24.1 100.82     LegendNANA
16:00 24.2 5.3 29   22 21 24.1 100.79     Mostly Cloudy
17:00 23.7 5.7 31   20 15 24.1 100.75     LegendNANA
18:00 22.2 5.3 33   21 17 24.1 100.76     LegendNANA
19:00 20.9 5.8 37   20 15 24.1 100.78     Mostly Cloudy
20:00 20.0 5.5 38   20 18 24.1 100.82     LegendNANA
21:00 19.2 5.6 41   21 15 24.1 100.84     LegendNANA
22:00 19.0 5.7 41   23 16 24.1 100.86     Cloudy
23:00 17.9 6.4 47   28 10 24.1 100.91     LegendNANA

Notes on Data Quality.

Legend

  • E = Estimated
  • M = Missing
  • NA = Not Available*
  • [empty] = Indicates an unobserved value
Date modified: